www.pogodaiklimat.ru

Погода и климат >> Архив погоды >> Россия >> Якутия >> Себян-Кюель


ПОГОДА в Себян-Кюеле

  • Прогноз погоды в Себян-Кюеле
  • Монитор погоды в Себян-Кюеле
  • Климат города

АРХИВ ПОГОДЫ в Себян-Кюеле

Время (UTC), дата Ветер
(напр.,м/с)
 
Видим.   Явления Облачность Т
(С)
Тd
(С)
f
(%)
Тe
(С)
Тes
(С)
Комфортность P
(гПа)
Po
(гПа)
Тmin
(С)
Tmax
(С)
R
(мм)
R24
(мм)
S
(см)
18 16.10 штиль 0 4000 м слабый снег 10/10 600 м
[Sc]
-13.6 -14.2 95 -14 -14 1028.9 929.8
21 16.10 штиль 0 4000 м слабый снег 10/10 600 м
[Sc]
-13.4 -14.0 95 -13 -13 1028.7 929.7
00 17.10 штиль 0 10 км слабый снег 10/6 1000 м
[Sc Ac trans]
-11.9 -12.3 97 -12 -12 1028.7 930.2 -13.7 1 10
03 17.10 штиль 0 10 км слабый снег 10/10 1000 м
[Sc]
-10.0 -12.8 80 -10 -10 1027.6 929.9
06 17.10 С 1 10 км слабый снег 10/10 1000 м
[Sc]
-8.4 -11.2 80 -11 -11 1026.8 929.7
09 17.10 штиль 0 4000 м слабый снег 10/10 600 м
[Sc]
-11.0 -12.3 90 -11 -11 1028.3 930.1
12 17.10 штиль 0 4000 м слабый снег 10/10 600 м
[Sc]
-11.0 -12.3 90 -11 -11 1028.2 930.0 -8.4 0.9
15 17.10 штиль 0 10 км слабый снег 10/10 600 м
[Sc]
-13.2 -13.8 95 -13 -13 1028.8 929.8
18 17.10 ЮЗ 1 4000 м слабый снег 10/10 600 м
[Sc]
-13.4 -14.0 95 -16 -16 1028.5 929.5
21 17.10 штиль 0 4000 м слабый снег 10/10 600 м
[Sc]
-13.6 -14.2 95 -14 -14 1028.5 929.4
00 18.10 штиль 0 10 км слабый снег 10/10 600 м
[Sc]
-12.2 -13.5 90 -12 -12 1028.4 929.8 -13.8 1 11
03 18.10 В 2 10 км слабый снег 10/10 600 м
[Sc]
-11.0 -13.0 85 -16 -16 1026.6 928.6
06 18.10 СВ 2 10 км слабый снег 10/10 600 м
[Sc]
-11.3 -14.1 80 -16 -16 1026.6 928.5
09 18.10 штиль 0 50 км {снег} 10/10 600 м
[Sc]
-12.6 -14.6 85 -13 -13 1027.4 928.8
12 18.10 штиль 0 50 км {снег} 10/10 600 м
[Sc]
-13.4 -14.7 90 -13 -13 1027.7 928.8 -11.0 1
15 18.10 штиль 0 10 км слабый снег 10/10 600 м
[Sc]
-14.0 -15.3 90 -14 -14 1027.6 928.4
18 18.10 СВ 1 10 км слабый снег 10/10 600 м
[Sc]
-15.2 -15.8 95 -18 -18 1027.7 928.0
21 18.10 штиль 0 10 км слабый снег 10/10 600 м
[Sc]
-15.0 -15.6 95 -15 -15 1027.6 928.0
00 19.10 штиль 0 10 км слабый снег 10/10 300 м
[Sc]
-14.4 -16.4 85 -14 -14 1027.5 928.2 -15.6 0.8 11
03 19.10 штиль 0 10 км слабый снег 10/10 480 м
[Sc]
-14.1 -16.8 80 -14 -14 1027.5 928.2
06 19.10 штиль 0 50 км {снег} 10/10 400 м
[Sc]
-14.4 -16.4 85 -14 -14 1027.6 928.3
09 19.10 ЮЗ 2 50 км 10/10 500 м
[Sc]
-15.2 -17.2 85 -20 -20 1028.9 928.9
12 19.10 ЮЗ 3 10 км слабый снег 10/10 480 м
[]
-18.0 -19.2 90 -25 -25 1030.5 929.6 -13.4 0.6
15 19.10 ЮЗ 2 50 км {снег} 10/10 480 м
[Sc]
-19.2 -20.4 90 -25 -25 1031.4 930.0
18 19.10 штиль 0 50 км {снег} 10/10 300 м
[Sc]
-19.8 -20.4 95 -20 -20 1032.0 930.3
21 19.10 штиль 0 50 км 10/10 300 м
[Sc]
-20.2 -20.8 95 -20 -20 1032.4 930.5
00 20.10 штиль 0 50 км 10/10 1000 м
[Sc]
-18.4 -19.6 90 -18 -18 1032.4 931.1 -20.4 0.0 11
03 20.10 штиль 0 50 км 10/0 2000 м
[Ac trans Ci fib]
-16.0 -19.4 75 -16 -15 1031.1 930.9
06 20.10 штиль 0 50 км 10/0 2000 м
[Ac trans Ci fib]
-15.4 -18.8 75 -15 -15 1030.7 930.8
09 20.10 штиль 0 50 км 10/0 2000 м
[Ac trans Cs]
-18.4 -20.3 85 -18 -18 1032.8 931.5
12 20.10 З 2 50 км 10/0
[Cs]
-24.0 -25.8 85 -30 -30 1036.0 932.2 -15.4
15 20.10 штиль 0 50 км 6/0
[Cs]
-24.8 -26.6 85 -25 -25 1036.4 932.3
18 20.10 ЮЗ 1 50 км ясно -25.8 -27.0 90 -29 -29 1036.9 932.3
21 20.10 штиль 0 50 км ясно -25.6 -26.8 90 -26 -26 1037.0 932.5
00 21.10 штиль 0 50 км 10/0 2000 м
[Ac trans Cs]
-23.4 -24.6 90 -23 -23 1035.6 932.1 -26.4 11
03 21.10 штиль 0 10 км слабый снег 10/6 1000 м
[Sc Ac und]
-14.5 -17.2 80 -15 -14 1031.4 931.7
06 21.10 штиль 0 10 км слабый снег 10/0 2000 м
[Ac trans Ci fib]
-12.6 -15.3 80 -13 -12 1030.2 931.3
09 21.10 штиль 0 10 км слабый снег 10/0 2000 м
[Ac trans Ci fib]
-16.0 -17.9 85 -16 -16 1031.7 931.4
12 21.10 штиль 0 50 км {снег} 10/0 2000 м
[Ac trans Ci fib]
-18.2 -19.4 90 -18 -18 1032.1 931.0 -12.4 0.3
15 21.10 штиль 0 50 км 6/0
[Cs]
-22.4 -23.6 90 -22 -22 1033.3 930.4
18 21.10 С 1 50 км 6/0
[Cs]
-24.0 -25.2 90 -27 -27 1032.9 929.5
21 21.10 штиль 0 50 км 6/0
[Cs]
-26.4 -27.0 95 -26 -26 1032.7 928.3
00 22.10 штиль 0 50 км 10/0 2000 м
[Ac trans Cs]
-22.4 -23.6 90 -22 -22 1028.2 925.9 -26.8 11
03 22.10 штиль 0 50 км 10/10 1000 м
[Sc]
-16.2 -18.1 85 -16 -16 1022.7 923.2
06 22.10 ЮВ 2 50 км 10/10 1000 м
[Sc]
-15.8 -18.5 80 -21 -21 1019.7 920.7
09 22.10 ЮЗ 2 50 км 10/10 600 м
[Sc]
-17.4 -19.3 85 -23 -23 1018.8 919.2
12 22.10 штиль 0 50 км 10/0 2000 м
[As trans]
-17.0 -19.6 80 -17 -17 1017.5 918.2 -15.0
15 22.10 штиль 0 50 км 10/0 2000 м
[As trans]
-17.4 -19.3 85 -17 -17 1015.8 916.6
18 22.10 штиль 0 50 км 10/0 2000 м
[As trans]
-17.6 -19.5 85 -18 -18 1014.9 915.7
21 22.10 ЮВ 1 50 км 10/0
[As trans]
-14.2 -16.5 83 -17 -17 1013.4 915.0
00 23.10 Ю 1 50 км 10/0
[As trans]
-10.4 -14.9 69 -13 -13 1010.4 914.1 -17.8 11
03 23.10 штиль 0 50 км 10/0 2000 м
[Ac und]
-7.8 -13.9 62 -8 -8 1009.0 913.8
06 23.10 штиль 0 50 км 8/0 2000 м
[Ac As]
-9.0 -15.1 61 -9 -9 1009.0 913.4
09 23.10 ЮЗ 1 50 км 4/0 2000 м
[Ac trans]
-16.2 -18.8 80 -19 -19 1011.7 913.3
12 23.10 З 2 50 км 10/0 2000 м
[As op]
-15.8 -18.5 80 -21 -21 1010.6 912.4 -7.4
15 23.10 ЮЗ 1 50 км 10/0 2000 м
[As op]
-16.4 -18.3 85 -19 -19 1010.6 912.2

 

Местоположение метеостанции Себян-Кюель (Якутия, Россия): широта 65.30 долгота 130.00 высота над уровнем моря 777 м.

В архиве по умолчанию представлена погода в Себян-Кюеле за последнюю неделю. Архивные данные за месяц целиком и за предыдущие месяцы, начиная с января 2011 года, Вы можете получить, выбрав интересующий диапазон дат из раскрывающегося списка и нажав кнопку "Ввод!".

Внимание! Время в таблицах - всемирное. Для получения местного времени необходимо прибавить поправку, которая в Себян-Кюеле равна 9 ч.

Смотрите также архив погоды в соседних городах и на ближайших метеорологических станциях:

Погода в Сеген-Кюели (Якутия, Россия) (145 км)
Погода в Екюччю (Якутия, Россия) (179 км)
Погода в Сангаре (Якутия, Россия) (195 км)
Погода в Батамае (Якутия, Россия) (200 км)
Погода в Сого-Хае (Якутия, Россия) (205 км)
Погода в Верхоянском Перевозе (Якутия, Россия) (240 км)
Погода в Иэме (Якутия, Россия) (269 км)
Погода в Бестяхской Звероферме (Якутия, Россия) (274 км)
Погода в Батагай-Алыте (Якутия, Россия) (276 км)
Погода в Намцах (Якутия, Россия) (288 км)

Пояснения к столбцам:

Ветер - указаны скорость ветра в м/с - средняя за 10 мин, порывы в срок и между сроками (в фигурных скобках) и направление, откуда дует ветер: С - северный, СВ - северо-восточный, В - восточный, ЮВ - юго-восточный, Ю - южный, ЮЗ - юго-западный, З - западный, СЗ - северо-западный.
Видимость - горизонтальная дальность видимости в метрах или километрах. При видимости от 1 до 10 км при отсутствии осадков обычно наблюдается дымка, при ухудшении видимости до 1 км и менее - туман. В сухую погоду видимость может ухудшаться дымом, пылью или мглою.
Явления - указаны атмосферные явления, наблюдавшиеся в срок или в последний час перед сроком; фигурными скобками обозначены явления, наблюдавшиеся между сроками (за 1-3 часа до срока); квадратными скобками обозначены град или гололедные отложения с указанием их диаметра в мм.
Облачность - указаны через наклонную черту общая и нижняя облачность в баллах и высота нижней границы облаков в метрах; квадратными скобками обозначены формы облаков: Ci - перистые, Cs - перисто-слоистые, Cc - перисто-кучевые, Ac - высококучевые, As - высокослоистые, Sc - слоисто-кучевые, Ns - слоисто-дождевые, Cu - кучевые, Cb - кучево-дождевые. Подробнее классификацию облаков см. в Атласе облаков (PDF).
T - Температура воздуха - температура, измеренная на высоте 2 м над землей.
Td - Температура точки росы - температура, при понижении до которой содержащийся в воздухе водяной пар достигнет насыщения.
f - Относительная влажность воздуха - влажноcть воздуха, измеренная на высоте 2 м над землей.
Te - Эффективная температура - температура, которую ощущает одетый по сезону человек в тени. Характеристика душности погоды. При расчете учитывается влияние влажности воздуха и скорости ветра на теплоощущения человека.
Tes - Эффективная температура на солнце - температура, которую ощущает человек, с поправкой на солнечный нагрев. Характеристика знойности погоды. Зависит от высоты солнца над горизонтом, облачности и скорости ветра. Ночью, в пасмурную погоду, а также при ветре 12 м/с и более поправка равна нулю.
P - Атмосферное давление - приведенное к уровню моря атмосферное давление.
Po - Атмосферное давление - измеренное на уровне метеостанции атмосферное давление.
Tmin - Минимальная температура - минимум температуры воздуха на высоте 2 м над землей.
Tmax - Максимальная температура - максимум температуры воздуха на высоте 2 м над землей.
R - Количество осадков - Количество выпавших осадков за период времени, мм. При наведении курсора мыши на число - период времени, за который выпало указанное количество осадков.
R24 - Количество осадков - Количество выпавших осадков за 24 часа, мм.
S - Снежный покров - Высота снежного покрова, см. При наведении курсора мыши на число - состояние снежного покрова и степень покрытия местности в баллах.